FENGYUN 1C DEB

Satellite information

Favourite Embed

Satellite Type and Status

DEBRISIN ORBIT

Key statistics

Satellite FENGYUN 1C DEB at a glance.

Uptime

9715

Days in orbit

Revolutions

≈ 13.7

Per day

Orbit

SSO

Sun Synchronous Orbit

Inclination

98.5

Latest

Satellite identification and parameters

Extended collection of information and parameters for FENGYUN 1C DEB.

Object identification

Identified? True

Debris? True

Object name: FENGYUN 1C DEB

International designator: 1999-025CXT

Object number (NORAD): 32326

Object ID (CCSDS): 32326

Country: PEOPLES REPUBLIC OF CHINA (PRC)

Current information (Y/N): Y

RCS size: SMALL

Orbital parameters

Period: 105.166 minutes

Inclination: 98.486 deg

SMA: 7380.361 km

Apoapsis: 1286.832 km

Periapsis: 717.62 km

RAAN: 264.9459 deg

Eccentricy: 0.03856265

Argument of periapsis: 173.0082 deg

Mean anomaly: 187.6669 deg

Mean motion: 13.69261307 rev/day

Mean motion (dot): 0.00000622 rev/day2

B* drag term: 0.00044957354 1/REarth

Two-line elements (TLE)

Creation date: Nov. 30, 2025, 5:58 p.m.

Reference frame: TEME

Reference center: EARTH

Epoch: Nov. 30, 2025, 2:32 a.m. UTC

TLE line 0: 0 FENGYUN 1C DEB

TLE line 1: 1 32326U 99025CXT 25334.10599513 .00000622 00000-0 44957-3 0 9993

TLE line 2: 2 32326 98.4860 264.9459 0385627 173.0082 187.6669 13.69261307630093

Live tracking on map

Real-time ground track for satellite FENGYUN 1C DEB.

In-orbit conjunctions

A list of the most updated potential collisions computed for object FENGYUN 1C DEB.

Target Orbit TCA Probability of collision Miss distance Type
THOR ABLESTAR DEB LEO 2025-05-14 19:35:27 0.0001025892 211.0 (m) DEBRIS
COSMOS 1275 DEB LEO 2024-12-14 18:32:29 0.0001551079 227.0 (m) DEBRIS

Associated space launch

Chinese polar orbiting meteorological satellite

FENGYUN 1C DEB was lifted into orbit during the mission ‘Long March 4B | Feng Yun 1C’, on board a Long March 4B space rocket.

The launch took place on May 10, 1999, 1:33 a.m. from Launch Complex 7.

For more information about the launch, click the button.

Launch to space Long March 4B | Feng Yun 1C
Long March 4B | Feng Yun 1C

Agency: N/A

Status: Launch Successful

Launch date: May 10, 1999, 1:33 a.m. UTC

Rocket: Long March 4B

Launch pad: Launch Complex 7

Location: Taiyuan Satellite Launch Center, People's Republic of China

...

Latest news about this satellite

There are no fresh news available about this satellite. Check back as we update our databases every day.


Newsletter sign-up

Weekly statistics, charts and insights to help you stay on top of the space industry.